Weather in Strenci

Latvia     57°37′39″N   25°41′06″E
temp.,
°C
wind,
m/s
gust,
m/s
humid.,
%
clouds,
%
prec.,
mm/h
press.,
hPa
HPBL,
m
21 april, wed
wed2100:00+6se3878100 0.0 1012314
03:00+5se2586100 0.0 1011149
06:00+3se239469 0.0 100977
09:00+8se22725 0.0 1008414
12:00+13sse124855 0.0 10051400
15:00+13w334693 0.3 10031549
18:00+13w454535 0.7 10021464
21:00+7w276332 0.7 1003141
22 april, thu
thu2200:00+5wsw246053 0.0 100384
03:00+4ssw2973100 0.0 1003202
06:00+4sw4118187 0.0 1003519
09:00+7sw48557 0.0 1004934
12:00+10ssw5839100 0.0 10052064
15:00+11ssw583090 0.0 10042713
18:00+10ssw474294 0.0 10042090
21:00+6ssw496976 0.4 1004846
23 april, fri
fri2300:00+4ssw4871100 0.0 10041200
03:00+3s4879100 0.1 1004845
06:00+1s41096100 0.5 1002578
09:00+2ssw4896100 1.1 1003530
12:00+5wsw5969100 0.4 10041467
15:00+3sw61293100 1.0 1006801
18:00+2w51296100 0.8 1008860
21:000wsw4109179 1.0 1009719
24 april, sat
sat2400:000ssw31097100 0.2 1008509
03:00+1wsw369799 0.4 1007379
06:00+1w41097100 0.4 1007643
09:00+2w51196100 0.9 1007704
12:00+2w51196100 0.9 1006647
15:00+3wnw4895100 1.8 1007600
18:00+3wnw4997100 1.7 1008613
21:00+2wnw389281 2.3 1009416
25 april, sun
sun2500:00+1w3895100 0.1 1008613
03:00+1wnw4997100 0.3 1008630
06:000wnw51197100 0.3 1007752
09:00+1wnw5991100 1.8 1008798
12:00+2wnw5887100 0.6 1009965
15:00+2wnw4893100 1.4 1009861
18:00+2wnw4889100 0.8 1011873
21:000wnw4108838 0.9 1012671